Flag for Japan Weather past 2 weeks in Utsunomiya, Japan

Now
83 °F

Warm.


Feels Like: 88 °F
Forecast: 62 / 76 °F
Wind: 5 mph from South

Location: Mito

Current Time: Sep 4, 2015 at 11:39:41 AM

Latest Report: Sep 4, 2015 at 11:00 AM


Visibility: N/A

Pressure: 29.74 "Hg

Humidity: 67%

Dew point: 71 °F

Location of UtsunomiyaLocation

Historic Weather in Utsunomiya — Graph

°F

Utsunomiya temperature yesterday

Maximum temperature yesterday: 80 °F (at 12:00 PM)
Minimum temperature yesterday: 72 °F (at 9:00 PM)
Average temperature yesterday: 75 °F

Past Weeks' High & Low Weather Summary

 TemperatureHumidityPressure
High92 °F (Aug 22, 3:00 PM)98% (Aug 21, 2:00 AM)30.02 "Hg (Aug 21, 2:00 AM)
Low67 °F (Aug 29, 3:00 AM)56% (Aug 22, 3:00 PM)29.50 "Hg (Aug 22, 3:00 PM)
Average74 °F84%29.83 "Hg
* Reported Aug 20 10:00 AM — Sep 4 10:00 AM, Utsunomiya, Weather by CustomWeather, © 2015

Note: Actual official high and low records may vary slightly from our data, if they occured in-between our weather recording intervals... More about our weather records

Advertising

Utsunomiya weather history for previous 24 hours

 ConditionsComfort  
Time TempWeatherWind HumidityBarometerVisibility
10:00 AM
Fri, Sep 4
79 °FWarm.3 mph77%29.75 "HgN/A
9:00 AM78 °FOvercast.5 mph77%29.75 "Hg6 mi
8:00 AM75 °FMild.2 mph85%29.76 "HgN/A
7:00 AM73 °FMild.2 mph91%29.78 "HgN/A
5:00 AM71 °FMild.3 mph97%29.74 "HgN/A
4:00 AM71 °FMild.1 mph96%29.76 "HgN/A
3:00 AM71 °FSprinkles. Overcast.2 mph96%29.77 "Hg6 mi
2:00 AM72 °FMild.1 mph95%29.78 "HgN/A
1:00 AM71 °FMild.1 mph95%29.79 "HgN/A
12:00 AM72 °FMild.2 mph93%29.82 "HgN/A
11:00 PM
Thu, Sep 3
72 °FMild.3 mph92%29.83 "HgN/A
10:00 PM72 °FMild.5 mph88%29.83 "HgN/A
9:00 PM72 °FSprinkles. Overcast.2 mph91%29.83 "Hg12 mi
8:00 PM73 °FMild.3 mph86%29.86 "HgN/A
7:00 PM73 °FMild.2 mph84%29.86 "HgN/A
6:00 PM74 °FMild.3 mph79%29.86 "HgN/A
5:00 PM76 °FMild.3 mph73%29.86 "HgN/A
4:00 PM76 °FMild.6 mph70%29.85 "HgN/A
3:00 PM77 °FSprinkles. Overcast.3 mph70%29.86 "Hg12 mi
2:00 PM78 °FWarm.5 mph64%29.87 "HgN/A
12:00 PM80 °FWarm.5 mph59%29.90 "HgN/A
11:00 AM80 °FWarm.6 mph61%29.92 "HgN/A
Weather by CustomWeather, © 2015

See weather overviewHow to use our weather pages